Temp
3 3 3 3 3 3 3 3 3 3 3 3 3 4 4 4 4 4 4 4 5 5 5 5 6 6 7 8 9 10 12 15 17 18 20 23 21 23 21 21 21 19 19 18 13
3 3 3 2 2 2 2 2 2 2 2 3 3 4 4 4 4 4 4 4 5 5 4 5 6 6 6 8 9 10 12 14 19 20 20 21 21 22 20 20 18 15 15 15 13
3 3 2 2 2 2 2 2 2 3 3 3 4 4 3 4 4 3 3 4 4 5 5 4 5 5 7 8 9 11 12 15 18 21 22 21 21 21 20 18 18 15 13 13 13
4 3 2 2 2 2 2 2 2 3 3 3 3 4 3 3 3 3 3 3 4 4 4 5 4 5 8 8 9 11 12 16 18 20 22 20 21 20 20 20 19 17 14 13 13
5 4 4 3 2 3 3 2 3 3 3 3 3 4 3 4 4 3 3 3 4 4 4 4 4 5 7 9 8 10 13 14 17 18 21 21 20 19 20 21 20 17 14 13 12
5 4 4 4 5 5 5 4 4 3 4 3 4 3 4 5 3 3 3 2 3 3 4 4 5 5 6 8 8 10 13 14 16 18 21 19 19 20 19 19 17 15 13 13 12
5 4 4 5 5 5 5 5 4 4 4 4 4 4 4 3 3 3 2 3 3 2 3 4 4 5 6 8 8 8 12 13 15 17 19 20 18 18 19 18 16 14 13 12 12
5 4 5 5 5 5 5 5 4 4 4 4 4 4 3 4 3 3 3 3 3 2 3 4 3 5 4 8 8 8 11 11 15 16 18 19 15 18 18 17 16 13 13 13 13
6 5 5 5 5 5 5 5 4 4 4 4 4 4 3 3 3 3 2 3 3 2 3 3 4 4 5 8 6 7 9 12 14 16 17 16 16 15 18 17 15 13 13 13 12
6 5 5 5 5 5 5 5 4 4 4 3 3 4 3 3 2 3 3 3 3 3 3 4 4 4 6 7 8 7 8 9 14 16 16 15 16 17 18 17 13 13 12 12 12
7 6 6 5 5 5 5 4 3 4 1 0 1 2 2 1 3 3 3 3 3 3 4 2 5 5 5 8 7 6 7 13 16 17 16 16 16 15 16 15 13 12 12 12 12
7 6 6 5 5 5 4 5 5 4 2 0 0 1 1 2 2 3 3 3 3 5 3 5 5 5 6 7 8 9 7 9 16 17 16 15 15 15 13 14 13 13 12 12 12
8 7 6 5 5 4 4 4 4 4 4 2 0 1 0 1 2 3 2 3 2 5 5 6 6 7 6 7 9 10 12 9 15 16 16 16 12 13 13 15 15 13 12 12 12
8 7 6 5 4 5 4 5 4 4 4 3 2 2 2 1 2 2 2 2 3 7 8 6 7 7 7 9 11 9 11 14 15 14 13 16 11 12 12 14 14 13 12 12 12
8 8 6 5 5 4 4 4 4 3 5 4 2 4 4 2 2 3 3 3 4 9 9 6 7 7 7 10 11 12 12 15 15 14 13 14 10 13 13 12 14 12 13 13 13
8 8 7 6 5 5 4 4 4 5 5 3 4 5 4 5 4 3 3 3 4 9 9 9 9 9 10 10 11 12 12 15 11 11 10 14 12 14 13 14 14 14 14 13 12
9 8 7 6 5 4 4 3 6 5 6 4 3 5 5 3 4 6 6 5 4 6 7 10 10 9 10 11 10 10 11 9 9 9 10 13 13 14 15 16 15 14 14 14 13
9 8 7 6 6 5 3 4 7 4 4 5 5 5 5 4 6 7 7 5 4 4 8 8 7 10 12 12 11 11 11 9 9 9 10 14 12 15 14 14 17 16 14 14 13
9 8 6 7 6 5 4 5 5 4 2 2 4 5 8 5 3 6 5 4 3 4 6 9 9 11 12 13 14 13 12 14 13 14 11 12 15 15 14 13 13 15 15 14 13
9 8 7 7 6 6 4 3 3 3 2 3 5 4 5 3 4 4 6 3 3 4 5 8 9 12 12 12 13 13 15 11 12 11 12 11 12 12 12 12 11 12 14 14 13
9 8 8 7 6 5 3 3 2 2 1 2 3 2 3 2 2 3 4 4 4 3 4 6 10 11 12 12 12 12 12 13 13 11 9 10 11 15 13 13 12 12 15 12 11
9 7 9 7 4 2 2 3 1 2 1 2 2 3 2 3 3 3 4 4 4 4 4 7 5 9 10 12 12 11 12 13 11 12 11 11 12 10 13 13 13 13 13 12 11
9 8 8 8 4 2 2 2 2 2 2 2 2 2 3 3 3 4 4 5 4 3 3 4 8 7 9 11 11 11 12 13 12 13 11 9 12 9 8 8 13 12 9 8 8
8 3 7 6 2 3 3 3 2 0 1 1 1 1 2 2 2 4 5 4 4 4 3 3 6 10 9 11 11 11 12 12 12 10 12 12 14 11 8 8 7 7 7 7 6
8 1 1 2 0 -0 1 -0 2 1 1 0 1 1 2 2 4 4 4 4 3 3 4 4 5 8 9 10 10 11 11 11 10 11 10 13 13 12 9 7 7 8 7 6 4
6 3 0 -3 -2 -1 0 -0 1 0 0 0 -0 -0 -1 -1 1 1 0 2 1 1 2 1 5 5 6 10 10 9 10 11 11 11 12 12 12 8 11 11 8 7 6 5 4
6 5 3 -0 -1 -0 1 1 0 1 -0 0 1 -0 -0 -0 -0 -1 -1 -1 -0 -1 -0 1 3 4 6 6 6 7 8 8 10 10 12 10 11 8 8 7 8 7 6 5 4
Height
1468 1466 1464 1462 1460 1458 1456 1456 1455 1453 1452 1451 1451 1449 1448 1448 1448 1448 1449 1451 1452 1451 1452 1451 1452 1454 1456 1457 1459 1464 1465 1458 1453 1454 1456 1455 1458 1465 1469 1472 1480 1487 1491 1493 1502
1466 1464 1462 1459 1458 1456 1455 1454 1452 1451 1450 1449 1448 1447 1445 1446 1446 1447 1448 1445 1447 1447 1448 1450 1450 1450 1454 1451 1455 1458 1458 1453 1447 1448 1451 1453 1457 1464 1472 1476 1486 1489 1495 1495 1503
1463 1461 1459 1457 1455 1454 1452 1452 1451 1450 1449 1448 1446 1444 1443 1444 1447 1445 1444 1443 1443 1443 1444 1449 1449 1451 1450 1450 1450 1456 1454 1454 1447 1446 1449 1451 1459 1465 1471 1478 1482 1489 1495 1498 1504
1461 1459 1457 1454 1453 1451 1450 1450 1450 1449 1449 1447 1447 1444 1441 1444 1448 1444 1442 1440 1438 1438 1440 1446 1448 1447 1445 1451 1449 1453 1456 1451 1447 1446 1447 1452 1460 1468 1472 1474 1479 1485 1494 1500 1504
1460 1457 1455 1453 1451 1450 1449 1449 1448 1448 1448 1447 1447 1447 1446 1446 1447 1443 1441 1438 1436 1436 1439 1443 1449 1451 1444 1446 1452 1453 1452 1450 1448 1448 1446 1450 1459 1468 1473 1472 1476 1484 1494 1501 1505
1459 1456 1454 1452 1450 1449 1448 1448 1448 1448 1447 1447 1447 1447 1447 1447 1445 1443 1441 1438 1434 1434 1438 1442 1445 1450 1449 1447 1452 1451 1451 1450 1450 1447 1446 1451 1459 1466 1473 1472 1476 1483 1494 1502 1505
1458 1455 1452 1451 1450 1449 1449 1449 1448 1448 1448 1448 1448 1447 1448 1449 1445 1443 1441 1439 1436 1434 1437 1441 1444 1446 1445 1447 1450 1453 1452 1449 1449 1448 1450 1451 1462 1465 1472 1472 1479 1486 1495 1504 1506
1457 1454 1452 1450 1449 1449 1450 1450 1449 1449 1449 1449 1448 1448 1448 1447 1445 1444 1440 1438 1437 1436 1438 1441 1445 1448 1447 1447 1454 1455 1453 1459 1450 1448 1449 1449 1470 1463 1470 1474 1480 1487 1495 1503 1509
1457 1454 1451 1450 1450 1449 1450 1450 1450 1451 1450 1450 1449 1450 1450 1447 1444 1443 1440 1438 1438 1438 1439 1443 1446 1452 1450 1446 1458 1460 1452 1453 1451 1447 1448 1454 1463 1468 1469 1473 1479 1487 1496 1501 1508
1457 1453 1452 1450 1450 1450 1451 1451 1451 1451 1449 1449 1449 1452 1452 1451 1445 1443 1441 1438 1437 1437 1440 1442 1446 1450 1447 1446 1454 1458 1460 1464 1448 1447 1448 1457 1462 1465 1469 1473 1482 1489 1495 1500 1506
1456 1453 1452 1451 1451 1451 1452 1451 1455 1454 1450 1456 1458 1456 1456 1450 1446 1444 1441 1439 1437 1436 1439 1443 1441 1450 1452 1451 1459 1465 1465 1450 1445 1444 1452 1456 1460 1465 1469 1474 1481 1490 1494 1499 1504
1457 1454 1452 1452 1452 1452 1452 1454 1453 1456 1457 1457 1457 1456 1455 1451 1448 1447 1442 1440 1439 1431 1437 1437 1445 1455 1456 1451 1455 1460 1467 1464 1443 1443 1449 1457 1466 1469 1473 1475 1480 1485 1492 1497 1502
1459 1456 1453 1453 1453 1453 1453 1454 1453 1454 1455 1458 1457 1455 1457 1454 1451 1449 1447 1442 1442 1435 1433 1434 1448 1453 1452 1454 1455 1453 1455 1466 1449 1446 1448 1457 1479 1475 1476 1477 1481 1486 1491 1495 1498
1461 1457 1454 1453 1455 1453 1452 1451 1452 1454 1455 1461 1456 1456 1459 1456 1455 1453 1449 1449 1442 1433 1432 1442 1449 1449 1453 1452 1448 1459 1457 1446 1448 1452 1466 1454 1493 1480 1478 1477 1478 1483 1489 1492 1497
1461 1458 1455 1453 1453 1454 1453 1451 1453 1455 1454 1461 1458 1455 1456 1460 1461 1457 1452 1448 1443 1430 1429 1451 1452 1448 1452 1450 1451 1448 1451 1445 1448 1453 1459 1464 1491 1475 1475 1481 1478 1481 1486 1487 1491
1461 1458 1456 1455 1453 1453 1452 1452 1454 1454 1466 1466 1457 1458 1457 1456 1457 1455 1454 1452 1447 1431 1432 1443 1447 1450 1447 1447 1451 1449 1450 1450 1459 1466 1485 1465 1482 1471 1474 1470 1473 1477 1482 1486 1489
1461 1459 1456 1454 1455 1453 1452 1453 1451 1463 1468 1467 1465 1461 1459 1459 1451 1452 1452 1455 1452 1451 1449 1439 1439 1445 1446 1448 1458 1454 1465 1476 1486 1489 1489 1469 1475 1472 1460 1460 1461 1468 1476 1480 1484
1460 1459 1456 1453 1453 1452 1453 1455 1454 1471 1473 1468 1464 1461 1462 1460 1451 1445 1447 1454 1455 1452 1446 1450 1457 1441 1436 1440 1447 1453 1460 1473 1483 1489 1483 1463 1476 1462 1451 1455 1457 1462 1467 1474 1480
1460 1458 1455 1453 1452 1453 1454 1458 1464 1468 1476 1475 1467 1462 1454 1461 1463 1451 1453 1460 1466 1463 1458 1454 1457 1448 1443 1440 1441 1448 1458 1447 1455 1455 1475 1472 1459 1455 1455 1456 1456 1463 1469 1473 1478
1461 1457 1456 1453 1452 1453 1457 1467 1471 1474 1476 1476 1469 1469 1465 1467 1462 1462 1458 1463 1466 1467 1464 1454 1458 1448 1446 1445 1441 1442 1441 1459 1454 1475 1476 1473 1465 1461 1458 1458 1458 1460 1464 1469 1473
1463 1459 1456 1453 1452 1453 1465 1472 1473 1475 1475 1475 1472 1474 1472 1473 1470 1468 1465 1466 1466 1465 1464 1460 1451 1454 1449 1447 1446 1446 1448 1445 1448 1454 1471 1474 1467 1437 1442 1446 1452 1456 1460 1462 1467
1463 1463 1457 1454 1456 1461 1467 1469 1473 1474 1476 1476 1477 1476 1475 1472 1469 1468 1464 1463 1464 1465 1464 1459 1463 1458 1454 1444 1443 1446 1445 1443 1457 1453 1452 1453 1452 1435 1433 1437 1442 1449 1456 1459 1465
1460 1461 1459 1455 1460 1466 1470 1471 1472 1473 1474 1475 1475 1477 1477 1475 1475 1466 1464 1462 1463 1465 1465 1463 1449 1462 1461 1452 1447 1448 1442 1441 1441 1439 1449 1464 1448 1438 1437 1436 1439 1445 1451 1456 1460
1464 1462 1459 1458 1463 1463 1465 1467 1470 1472 1473 1474 1474 1475 1475 1474 1474 1468 1464 1465 1464 1463 1464 1464 1453 1442 1450 1443 1440 1446 1442 1442 1445 1454 1445 1440 1434 1439 1441 1443 1443 1446 1450 1454 1459
1463 1467 1464 1467 1466 1469 1467 1469 1469 1471 1472 1471 1471 1471 1470 1471 1465 1467 1465 1466 1468 1466 1465 1463 1458 1446 1442 1438 1439 1435 1437 1439 1443 1443 1448 1437 1435 1434 1435 1438 1442 1446 1451 1454 1459
1467 1465 1467 1468 1468 1470 1470 1468 1467 1469 1470 1471 1472 1471 1471 1472 1469 1468 1470 1468 1469 1467 1466 1465 1456 1456 1449 1437 1439 1441 1436 1433 1432 1434 1434 1436 1437 1434 1432 1434 1440 1443 1447 1451 1455
1468 1466 1465 1468 1468 1470 1467 1466 1465 1466 1468 1468 1470 1471 1471 1471 1469 1469 1470 1470 1470 1471 1470 1468 1461 1461 1451 1445 1447 1445 1434 1434 1429 1428 1426 1439 1427 1430 1434 1434 1434 1438 1442 1448 1452
Wind_Speed
15 15 15 14 11 11 12 11 12 11 12 12 11 14 13 12 10 10 11 12 15 12 11 15 10 19 16 12 23 20 5 14 18 19 18 21 9 17 8 21 17 8 14 13 30
15 14 14 13 10 10 9 9 10 11 8 7 12 12 12 8 6 8 9 15 18 21 15 15 14 14 11 10 14 9 9 14 14 12 12 14 15 12 10 21 17 25 24 23 33
14 13 13 12 11 10 9 10 10 8 6 8 9 12 11 5 4 2 10 16 15 18 23 15 16 10 12 10 14 16 14 13 18 22 23 17 14 15 11 8 20 29 27 26 34
15 14 12 11 11 10 9 8 6 6 5 6 6 9 5 6 1 3 9 10 11 12 17 16 10 5 4 7 10 10 14 21 20 29 22 17 22 13 16 14 22 27 25 28 33
16 15 13 12 10 8 8 7 4 3 4 2 3 7 5 3 4 9 11 11 6 7 15 18 10 13 4 7 3 14 14 23 27 17 19 28 17 14 15 14 25 29 26 28 31
15 16 13 11 9 7 5 3 1 3 1 1 3 3 4 4 6 8 8 11 9 8 16 20 8 8 5 3 12 9 21 24 9 18 13 18 12 20 12 27 32 29 27 28 28
16 15 11 8 6 4 4 4 5 5 3 2 2 6 5 5 7 9 9 9 7 2 9 11 8 7 7 3 8 11 11 9 9 16 4 20 8 9 19 29 29 28 25 25 25
17 15 10 6 4 2 4 5 6 6 6 1 6 7 1 7 13 12 8 7 6 1 4 11 12 11 5 9 5 1 8 11 10 8 9 13 10 12 25 29 25 29 24 26 26
17 14 9 4 2 4 5 5 4 6 6 5 7 6 3 8 15 13 10 8 0 3 7 11 7 6 5 9 4 2 6 16 14 13 9 6 14 10 24 26 23 27 25 24 25
16 13 8 3 3 6 7 5 2 8 10 2 4 1 10 14 15 13 13 6 2 4 5 6 5 3 1 4 6 4 4 12 14 16 8 10 13 14 21 23 22 20 22 24 24
16 12 6 2 3 7 9 4 0 0 21 6 4 6 8 13 5 12 11 7 5 5 3 4 7 7 4 10 2 9 2 18 16 12 11 11 14 12 17 20 22 20 22 25 25
19 12 6 2 4 10 6 4 2 2 6 10 6 6 3 6 4 10 9 4 4 5 10 6 10 10 7 7 3 14 12 11 10 15 8 9 12 10 3 16 23 23 22 24 24
25 14 7 3 5 10 7 8 3 7 1 4 8 6 5 8 5 7 7 5 2 5 3 10 9 10 6 7 10 6 19 15 13 9 5 13 5 7 5 5 20 20 19 25 29
20 16 8 4 3 3 5 7 8 5 1 9 7 6 10 5 3 8 5 4 3 9 8 10 4 8 7 10 8 9 13 15 13 8 6 9 5 7 10 9 12 22 25 27 27
14 20 8 3 2 2 4 4 5 3 5 9 7 9 8 6 7 3 8 7 7 5 2 5 7 4 8 4 5 4 5 7 9 8 6 7 6 6 12 8 10 18 23 28 32
7 26 12 3 0 2 4 5 6 1 5 4 5 5 5 6 4 6 2 5 8 12 14 6 7 5 2 6 2 4 3 11 6 3 3 7 7 6 9 13 12 17 23 25 29
4 15 16 7 2 4 6 4 2 5 3 6 4 7 6 5 6 1 4 5 4 5 4 5 4 5 4 10 2 5 8 1 4 3 3 6 5 7 10 13 19 19 27 31 33
7 7 26 13 4 4 5 2 8 2 2 4 4 9 1 6 3 6 2 3 7 7 3 4 3 1 1 4 9 15 9 4 5 6 5 6 6 5 3 9 28 29 34 34 33
10 4 19 11 6 3 1 5 1 2 3 3 6 4 2 3 4 7 5 4 5 7 2 3 3 5 6 3 7 12 10 3 5 4 4 4 1 3 3 4 7 22 26 27 27
10 4 13 8 6 4 3 3 0 2 2 2 1 2 3 7 5 7 6 2 3 1 4 5 4 4 2 4 6 4 5 2 1 5 5 6 7 5 7 8 7 10 25 29 31
8 4 13 5 4 6 3 2 2 2 1 0 2 1 2 1 1 1 2 1 3 4 5 5 2 2 1 4 5 1 2 2 4 4 5 5 6 9 15 13 14 11 27 30 28
6 3 12 5 4 4 2 2 2 3 2 1 2 1 3 1 3 2 3 2 4 4 4 4 3 4 7 1 3 3 4 7 3 4 2 4 5 4 7 14 24 25 21 26 25
6 4 8 1 2 2 3 3 2 4 4 4 4 2 2 2 2 4 5 1 2 2 1 5 4 4 3 2 4 4 5 5 6 3 6 5 5 3 6 9 21 24 24 23 25
7 2 5 10 5 2 3 3 4 3 2 3 2 3 4 5 4 2 4 1 2 3 3 2 4 3 7 2 6 7 8 6 3 4 3 8 2 1 5 5 9 16 18 18 19
4 1 1 2 4 3 3 1 1 3 3 4 4 3 3 3 4 4 2 2 4 2 1 2 3 4 6 1 4 3 8 9 10 6 6 3 6 7 10 11 18 20 18 18 19
4 2 2 3 3 1 1 4 4 2 3 2 2 2 1 3 1 2 1 2 2 5 3 4 1 5 4 5 3 6 8 9 15 11 11 10 14 7 3 16 22 25 25 24 24
6 2 1 4 3 1 2 2 4 4 5 1 1 1 4 2 2 1 1 2 2 1 3 2 1 1 4 6 6 7 10 10 6 9 12 10 12 7 5 7 21 25 26 26 25
Wind_Direction
339 335 329 328 325 310 304 305 297 301 295 299 298 304 288 286 275 264 254 256 252 263 268 270 261 230 246 234 211 214 233 215 210 198 190 212 149 181 62 111 117 71 153 172 158
339 335 328 323 320 313 311 304 297 300 307 308 302 301 295 281 262 249 250 254 241 246 255 262 264 237 208 212 199 203 218 224 214 197 188 178 160 145 120 115 110 93 123 147 153
334 334 331 330 325 319 315 305 304 312 307 313 316 304 274 214 236 245 270 271 265 267 240 229 249 231 201 252 193 204 218 229 229 229 197 151 168 157 165 146 148 135 142 155 158
344 341 335 333 329 321 322 320 315 310 315 313 344 42 93 137 168 285 317 314 269 274 199 204 216 276 213 202 225 182 241 216 241 231 203 161 161 165 214 164 162 163 157 159 163
353 346 340 336 331 340 333 321 317 311 312 318 104 56 88 162 30 324 347 347 310 218 198 188 186 206 234 187 154 240 201 239 243 284 202 147 174 162 206 136 161 157 154 163 164
357 348 342 341 347 1 9 56 26 348 10 181 87 26 322 45 338 310 344 336 332 245 202 200 197 189 272 189 143 232 184 220 243 267 189 152 182 154 147 130 135 147 156 166 167
359 349 340 344 358 14 64 72 61 47 18 175 79 354 26 17 340 341 338 332 350 210 158 174 176 169 351 143 179 260 210 203 241 235 259 175 163 153 152 135 136 141 156 165 171
359 352 346 354 8 72 104 88 88 50 30 33 360 346 75 360 357 343 334 340 360 236 161 189 178 182 294 138 119 225 247 167 214 195 247 173 175 139 151 138 149 142 156 166 170
359 356 351 8 55 118 123 118 75 25 26 4 357 344 17 360 347 349 344 341 308 119 100 148 169 176 238 139 79 29 170 185 179 195 208 138 151 152 155 154 143 139 161 162 172
2 359 358 31 112 138 138 107 35 53 357 329 343 72 35 336 322 2 356 352 314 138 90 100 185 120 261 130 176 143 216 214 161 183 172 173 163 150 163 150 135 147 161 161 173
12 9 11 37 143 154 134 98 264 142 41 59 13 346 350 334 347 360 358 360 40 193 145 221 138 104 93 185 117 132 169 183 168 175 162 196 145 161 154 128 129 162 164 163 173
10 13 26 59 155 165 148 288 306 105 90 52 32 26 19 360 291 359 18 11 321 243 161 137 100 120 102 105 124 167 208 241 163 169 152 168 158 148 177 156 158 163 168 163 166
25 20 29 90 147 193 214 234 247 141 351 16 32 12 11 31 335 347 13 328 345 293 103 102 112 102 69 115 175 186 186 207 162 160 201 135 176 156 201 212 154 165 170 168 173
17 23 32 102 82 166 243 243 208 187 233 355 358 14 17 318 348 13 9 335 273 116 106 74 113 87 97 135 171 154 211 218 146 155 164 127 195 212 169 194 153 157 174 172 173
14 22 24 42 162 209 245 196 192 163 43 330 326 341 6 55 327 30 315 319 289 300 136 119 128 78 114 141 228 213 183 175 156 170 101 165 67 190 160 189 165 162 181 177 178
25 33 23 28 227 181 183 157 154 301 22 354 292 345 40 29 357 301 229 259 286 75 77 107 138 176 147 109 5 320 352 127 40 28 147 189 150 188 175 183 183 173 189 187 183
340 22 24 25 265 180 172 139 77 57 353 325 325 350 7 326 323 80 22 65 22 106 66 118 56 125 192 119 168 9 164 99 74 17 227 229 203 217 179 184 184 175 188 189 189
349 6 22 17 60 172 158 229 66 160 246 344 310 308 51 356 312 340 35 45 28 22 104 62 39 269 236 151 150 177 184 141 139 173 190 166 199 225 76 69 185 186 183 185 185
1 2 11 12 64 146 91 50 99 126 112 328 295 287 96 45 15 333 47 39 34 9 53 100 102 225 288 343 165 178 211 249 125 180 96 203 113 337 68 93 99 167 177 182 183
344 3 360 12 69 97 60 109 65 29 103 196 26 352 345 349 10 16 358 15 329 324 335 319 99 227 234 302 259 191 180 59 53 139 171 199 207 209 188 187 180 176 174 180 185
344 319 352 360 58 72 80 66 113 119 126 267 26 250 283 269 45 13 304 99 45 305 308 285 225 245 136 233 189 190 229 221 194 170 173 149 237 199 192 184 183 190 180 179 175
352 303 343 2 54 45 96 113 159 143 147 170 309 231 274 182 288 286 265 199 36 321 334 11 282 159 204 45 11 317 270 201 148 227 246 150 258 19 154 181 177 182 181 189 191
325 299 334 231 95 107 154 129 195 180 162 175 192 209 186 269 260 227 244 83 16 120 38 353 247 125 172 282 180 235 261 272 305 305 218 140 250 39 40 48 173 161 158 174 191
330 5 2 49 41 40 141 154 162 192 171 193 197 160 194 218 216 243 223 189 342 351 324 285 279 242 193 225 177 200 202 258 222 266 219 223 26 190 144 129 101 133 165 183 197
18 359 45 355 24 13 4 59 143 205 228 202 195 220 185 194 189 209 154 215 192 344 260 310 255 347 306 59 349 289 202 204 221 231 241 251 256 208 185 180 177 176 179 188 192
328 121 91 131 121 15 269 217 199 151 173 232 225 146 190 194 190 151 73 49 28 332 8 334 295 351 294 238 225 266 273 233 221 229 249 242 272 144 109 158 162 180 183 188 196
339 335 200 150 148 143 232 200 218 131 185 268 18 211 206 264 136 101 217 283 310 359 340 342 268 155 261 13 14 290 216 232 242 226 221 218 231 156 160 173 178 185 194 198 201